Date,TemperatureHighF,TemperatureAvgF,TemperatureLowF,DewpointHighF,DewpointAvgF,DewpointLowF,HumidityHigh,HumidityAvg,HumidityLow,PressureMaxIn,PressureMinIn,WindSpeedMaxMPH,WindSpeedAvgMPH,GustSpeedMaxMPH,PrecipitationSumIn
2013-3-1,30.1,27.5,24.4,24.5,22.0,18.8,84,79,74,30.09,30.04,0,0,0,0.00
2013-3-2,27.6,25.7,24.7,19.0,18.1,17.3,75,72,67,30.09,30.08,0,0,0,0.00
2013-3-3,33.9,29.3,24.4,23.0,19.2,16.8,78,66,54,30.10,30.04,0,0,0,0.00
2013-3-4,44.1,31.1,18.5,25.3,19.5,12.6,92,63,38,30.21,30.07,0,0,0,0.00
2013-3-5,40.1,35.2,29.9,32.4,29.0,25.6,94,79,64,30.11,29.57,0,0,0,0.13
2013-3-6,38.4,34.3,31.9,33.5,31.3,28.6,95,89,80,30.24,29.57,0,0,0,0.73
2013-3-7,42.4,34.8,31.2,33.7,29.7,26.9,87,82,69,30.39,30.22,0,0,0,0.19
2013-3-8,45.7,35.3,27.5,33.0,28.4,23.5,91,77,56,30.50,30.38,0,0,0,0.19
2013-3-9,57.8,41.1,24.8,39.1,31.0,22.8,93,70,43,30.42,30.09,0,0,0,0.00
2013-3-10,71.0,56.4,42.7,42.6,37.3,32.6,74,51,29,30.09,29.85,24,2,24,0.02
2013-3-11,58.7,50.4,40.2,51.6,44.6,35.4,96,82,46,29.87,29.57,32,6,32,0.46
2013-3-12,40.0,36.9,31.3,35.9,31.9,28.1,89,82,73,30.04,29.82,20,4,20,0.46
2013-3-13,35.2,30.8,26.5,31.4,25.7,19.4,92,81,69,30.30,29.99,0,0,0,0.01
2013-3-14,45.4,32.2,23.0,29.6,21.7,17.7,82,66,43,30.36,30.17,0,0,0,0.01
2013-3-15,50.9,39.4,28.0,41.4,32.5,21.9,93,77,63,30.18,29.86,0,0,0,0.08
2013-3-16,56.4,42.7,33.1,50.6,39.5,30.2,96,88,79,30.04,29.62,0,0,0,0.19
2013-3-17,39.9,35.2,32.5,30.3,28.3,25.9,89,76,63,30.19,30.04,0,0,0,0.00
2013-3-18,49.8,40.5,32.5,48.7,38.3,27.3,96,92,74,30.10,29.62,0,0,0,0.12
2013-3-19,41.9,36.0,29.8,36.6,26.2,19.6,87,69,47,30.06,29.80,0,0,0,0.13
2013-3-20,41.2,31.7,23.0,28.5,19.6,12.4,73,61,49,30.06,29.94,0,0,0,0.00
2013-3-21,35.1,25.4,18.4,23.1,17.8,12.2,86,73,60,30.04,29.95,0,0,0,0.01
2013-3-22,46.1,32.1,21.2,29.5,20.5,16.4,83,64,39,30.09,30.01,0,0,0,0.01
2013-3-23,51.2,36.5,23.9,32.7,24.8,19.4,86,65,38,30.10,29.97,0,0,0,0.00
2013-3-24,37.7,34.2,31.8,32.5,27.3,23.0,93,76,57,29.99,29.44,0,0,0,0.03
2013-3-25,36.1,33.1,30.6,32.9,31.0,29.1,95,92,86,29.90,29.42,0,0,0,0.30
2013-3-26,45.1,36.2,32.0,36.9,30.9,26.4,96,82,56,30.19,29.90,0,0,0,0.15
2013-3-27,47.7,38.2,33.1,36.1,29.3,25.1,87,71,50,30.29,30.19,0,0,0,0.15
2013-3-28,53.9,39.7,28.8,37.9,27.9,23.4,82,64,44,30.33,30.27,0,0,0,0.00
2013-3-29,56.2,41.6,27.8,38.1,30.0,24.0,92,65,45,30.33,30.22,0,0,0,0.00
2013-3-30,60.2,43.7,26.6,37.8,29.7,23.8,91,62,33,30.27,29.98,0,0,0,0.00
2013-3-31,57.6,47.7,41.7,49.2,40.0,29.1,94,75,53,29.98,29.75,0,0,0,0.02